Location: Unspecified
(40.7790°N, 0.0000°E)
Time: 04:30:56
(UTC+00:00)

Cosmos 2360 - Visible Passes

Search period start: 04 April 2026 00:00
Search period end: 14 April 2026 00:00
Orbit: 848 x 854 km, 70.7° (Epoch: 29 March)

Date Brightness Start Highest point End Pass type
(mag) Time Alt. Az. Time Alt. Az. Time Alt. Az.
4 Apr 7.1 00:50:32 10° NNE 00:51:35 10° NE 00:52:38 10° NE visible
4 Apr 4.6 02:31:29 10° NNW 02:37:03 59° ENE 02:37:03 59° ENE visible
4 Apr 5.8 04:16:59 10° WNW 04:18:54 16° WNW 04:18:54 16° WNW visible
4 Apr 7.2 19:13:07 10° WNW 19:15:02 12° NW 19:16:57 10° NNW visible
5 Apr 7.0 00:38:14 10° NNE 00:39:18 10° NE 00:40:21 10° NE visible
5 Apr 5.0 02:19:12 10° NNW 02:23:28 47° NNE 02:23:28 47° NNE visible
5 Apr 6.1 04:04:43 10° WNW 04:05:23 12° WNW 04:05:23 12° WNW visible
5 Apr 7.2 19:00:50 10° WNW 19:02:45 12° NW 19:04:40 10° NNW visible
6 Apr 7.0 00:25:56 10° NNE 00:27:01 10° NE 00:28:04 10° NE visible
6 Apr 5.4 02:06:54 10° NNW 02:10:25 37° N 02:10:25 37° N visible
7 Apr 7.0 00:13:40 10° NNE 00:14:44 10° NE 00:15:41 10° NE visible
7 Apr 5.7 01:54:37 10° NNW 01:57:38 31° N 01:57:38 31° N visible
8 Apr 6.9 00:01:22 10° NNE 00:02:27 10° NE 00:03:03 10° NE visible
8 Apr 5.9 01:42:20 10° NNW 01:45:01 28° N 01:45:01 28° N visible
8 Apr 6.9 23:49:04 10° NNE 23:50:09 10° NE 23:50:33 10° NE visible
9 Apr 6.0 01:30:03 10° NNW 01:32:31 26° N 01:32:31 26° N visible
9 Apr 6.9 23:36:47 10° NNE 23:37:52 10° NE 23:38:07 10° NE visible
10 Apr 6.1 01:17:46 10° NNW 01:20:06 25° N 01:20:06 25° N visible
10 Apr 6.9 23:24:29 10° NNE 23:25:35 10° NE 23:25:45 10° NE visible
11 Apr 6.1 01:05:29 10° NNW 01:07:44 24° N 01:07:44 24° N visible
11 Apr 6.9 23:12:12 10° NNE 23:13:18 10° NE 23:13:27 10° NE visible
12 Apr 6.2 00:53:12 10° NNW 00:55:25 24° N 00:55:25 24° N visible
12 Apr 6.8 22:59:55 10° NNE 23:01:01 11° NE 23:01:11 10° NE visible
13 Apr 6.2 00:40:55 10° NNW 00:43:10 24° N 00:43:10 24° N visible
13 Apr 6.8 22:47:38 10° NNE 22:48:44 11° NE 22:48:57 10° NE visible
